Corlu, Turkey

6:46 AM +03 on July 26, 2017 (GMT +0300)
Corlu Air Base

Weather History for LTBU - November, 2012

Change the Weather History Date:

Thursday, November 8, 2012

  Actual Average (LTBA) Record (LTBA)
Temperature  
Mean Temperature 50 °F -  
Max Temperature 53 °F 59 °F 73 °F (2000)
Min Temperature 48 °F 49 °F 37 °F (2007)
Degree Days  
Heating Degree Days 14    
Moisture  
Dew Point 44 °F    
Average Humidity 77    
Maximum Humidity 87    
Minimum Humidity 67    
Precipitation  
Precipitation 0.00 in - - ()
Sea Level Pressure  
Sea Level Pressure 30.12 in    
Wind  
Wind Speed 18 mph ()    
Max Wind Speed 29 mph    
Max Gust Speed -    
Visibility 6.2 miles    
Events Rain    
Averages and records for this station are not official NWS values.
T = Trace of Precipitation, MM = Missing Value Source: Averaged Metar Reports

Daily Weather History Graph

Daily Weather History Graph

Search for Another Location

Airport or City:

Trip Planner

Search our weather history database for the weather conditions in past years. The results will help you decide how hot, cold, wet, or windy it might be!

Date:

Astronomy

Nov. 08, 2012 Rise Set
Actual Time 6:47 AM EET 4:55 PM EET
Civil Twilight 6:18 AM EET 5:24 PM EET
Nautical Twilight 5:45 AM EET 5:57 PM EET
Astronomical Twilight 5:13 AM EET 6:29 PM EET
Moon 12:19 AM EET (11/8) 1:29 PM EET (11/8)
Length of Visible Light 11h 05m
Length of Day
10h 07m
Waning Crescent, 36% of the Moon is Illuminated
Nov 8
Waning Crescent
Nov 14
New
Nov 20
First Quarter
Nov 28
Full
Dec 6
Last Quarter

Hourly Weather History & Observations

Time (EET) Temp. Dew Point Humidity Pressure Visibility Wind Dir Wind Speed Gust Speed Precip Events Conditions
12:20 AM 50.0 °F 46.4 °F 87% 30.09 in - North - - N/A   Mostly Cloudy
12:50 AM 50.0 °F 46.4 °F 87% 30.09 in - North - - N/A Rain Light Rain Showers
1:20 AM 50.0 °F 46.4 °F 87% 30.09 in - North - - N/A Rain Light Rain Showers
1:50 AM 50.0 °F 46.4 °F 87% 30.09 in - North - - N/A Rain Light Rain Showers
2:20 AM 50.0 °F 46.4 °F 87% 30.09 in - North - - N/A Rain Light Rain Showers
2:50 AM 50.0 °F 46.4 °F 87% 30.09 in - North - - N/A   Mostly Cloudy
3:20 AM 50.0 °F 46.4 °F 87% 30.09 in - North - - N/A   Mostly Cloudy
3:50 AM 50.0 °F 44.6 °F 82% 30.09 in - North - - N/A   Mostly Cloudy
4:20 AM 50.0 °F 44.6 °F 82% 30.09 in - North - - N/A   Mostly Cloudy
4:50 AM 50.0 °F 44.6 °F 82% 30.06 in - North - - N/A   Mostly Cloudy
5:20 AM 50.0 °F 44.6 °F 82% 30.06 in - North - - N/A   Mostly Cloudy
5:50 AM 50.0 °F 42.8 °F 76% 30.09 in - North - - N/A   Mostly Cloudy
6:20 AM 50.0 °F 42.8 °F 76% 30.09 in - North - - N/A   Mostly Cloudy
6:50 AM 48.2 °F 41.0 °F 76% 30.09 in - North - - N/A   Mostly Cloudy
7:20 AM 48.2 °F 41.0 °F 76% 30.09 in - North - - N/A   Mostly Cloudy
7:50 AM 48.2 °F 41.0 °F 76% 30.12 in - North - - N/A   Mostly Cloudy
8:20 AM 48.2 °F 41.0 °F 76% 30.15 in - North - - N/A   Mostly Cloudy
8:50 AM 48.2 °F 41.0 °F 76% 30.15 in - North - - N/A   Mostly Cloudy
9:20 AM 48.2 °F 41.0 °F 76% 30.15 in - North - - N/A   Mostly Cloudy
9:50 AM 48.2 °F 41.0 °F 76% 30.15 in - North - - N/A   Mostly Cloudy
10:20 AM 51.8 °F 42.8 °F 71% 30.15 in - North - - N/A   Mostly Cloudy
10:50 AM 51.8 °F 44.6 °F 76% 30.15 in - North - - N/A   Mostly Cloudy
11:20 AM 51.8 °F 44.6 °F 76% 30.15 in 6.2 mi North 23.0 mph - N/A   Mostly Cloudy
11:50 AM 53.6 °F 44.6 °F 72% 30.15 in 6.2 mi North 25.3 mph - N/A   Mostly Cloudy
12:20 PM 53.6 °F 44.6 °F 72% 30.15 in 6.2 mi North 25.3 mph - N/A   Mostly Cloudy
12:50 PM 53.6 °F 44.6 °F 72% 30.15 in 6.2 mi North 28.8 mph - N/A   Mostly Cloudy
1:20 PM 53.6 °F 42.8 °F 67% 30.12 in 6.2 mi North 27.6 mph - N/A   Mostly Cloudy
1:50 PM 53.6 °F 42.8 °F 67% 30.12 in 6.2 mi North 26.5 mph - N/A   Mostly Cloudy
2:20 PM 53.6 °F 42.8 °F 67% 30.15 in 6.2 mi North 26.5 mph - N/A   Mostly Cloudy
2:50 PM 53.6 °F 42.8 °F 67% 30.12 in 6.2 mi NNE 26.5 mph - N/A   Mostly Cloudy
3:20 PM 53.6 °F 44.6 °F 72% 30.12 in 6.2 mi North 23.0 mph - N/A   Mostly Cloudy
3:50 PM 53.6 °F 44.6 °F 72% 30.12 in 6.2 mi NNE 24.2 mph - N/A   Scattered Clouds
4:20 PM 53.6 °F 44.6 °F 72% 30.12 in 6.2 mi NNE 20.7 mph - N/A   Partly Cloudy
4:50 PM 51.8 °F 42.8 °F 71% 30.12 in 6.2 mi North 18.4 mph - N/A   Partly Cloudy
5:20 PM 51.8 °F 42.8 °F 71% 30.12 in 6.2 mi North 18.4 mph - N/A   Partly Cloudy
5:50 PM 50.0 °F 42.8 °F 76% 30.12 in 6.2 mi NNE 16.1 mph - N/A   Partly Cloudy
6:20 PM 50.0 °F 42.8 °F 76% 30.15 in 6.2 mi NNE 15.0 mph - N/A   Partly Cloudy
6:50 PM 50.0 °F 42.8 °F 76% 30.15 in 6.2 mi North 11.5 mph - N/A   Partly Cloudy
7:20 PM 50.0 °F 42.8 °F 76% 30.15 in 6.2 mi North 11.5 mph - N/A   Partly Cloudy
7:50 PM 48.2 °F 42.8 °F 82% 30.15 in 6.2 mi NNE 8.1 mph - N/A   Scattered Clouds
8:20 PM 50.0 °F 42.8 °F 76% 30.15 in 6.2 mi NNE 11.5 mph - N/A   Scattered Clouds
8:50 PM 48.2 °F 41.0 °F 76% 30.15 in 6.2 mi NNE 9.2 mph - N/A   Partly Cloudy
9:20 PM 50.0 °F 42.8 °F 76% 30.15 in 6.2 mi North 8.1 mph - N/A   Partly Cloudy
9:50 PM 48.2 °F 44.6 °F 87% 30.15 in 6.2 mi NNW 6.9 mph - N/A   Partly Cloudy
10:20 PM 48.2 °F 44.6 °F 87% 30.15 in 6.2 mi NNW 9.2 mph - N/A   Partly Cloudy
10:50 PM 51.8 °F 44.6 °F 76% 30.12 in 6.2 mi North 8.1 mph - N/A   Partly Cloudy
11:20 PM 51.8 °F 46.4 °F 82% 30.12 in 6.2 mi North 9.2 mph - N/A   Partly Cloudy
11:50 PM 51.8 °F 46.4 °F 82% 30.12 in 6.2 mi North 8.1 mph - N/A   Partly Cloudy